Location: Caltech
(34.1382°N, 118.1253°W)
Time: 12:48:06
(UTC-07:00)

Iridium 14 - Visible Passes

Search period start: 31 August 2015 00:00
Search period end: 10 September 2015 00:00
Orbit: 776 x 779 km, 86.4° (Epoch: 31 August)

Date Brightness Start Highest point End Pass type
(mag) Time Alt. Az. Time Alt. Az. Time Alt. Az.
31 Aug 8.7 23:11:10 10° N 23:11:50 14° N 23:11:50 14° N visible
01 Sep 8.6 22:37:47 10° N 22:38:23 13° NNE 22:38:23 13° NNE visible
02 Sep 8.6 22:04:53 10° NNE 22:04:57 10° NNE 22:04:57 10° NNE visible
02 Sep 9.1 23:45:23 10° NNW 23:45:25 10° NNW 23:45:25 10° NNW visible
03 Sep 8.8 23:11:21 10° NNW 23:12:00 14° NNW 23:12:00 14° NNW visible
04 Sep 8.5 22:37:45 10° N 22:38:35 15° N 22:38:35 15° N visible
05 Sep 8.4 22:04:32 10° NNE 22:05:10 13° NNE 22:05:10 13° NNE visible
06 Sep 8.8 23:11:42 10° NNW 23:12:14 13° NNW 23:12:14 13° NNW visible
07 Sep 8.5 22:37:50 10° N 22:38:50 16° N 22:38:50 16° N visible
08 Sep 8.3 22:04:23 10° N 22:05:26 16° N 22:05:26 16° N visible
09 Sep 8.3 21:31:21 10° NNE 21:32:03 13° NNE 21:32:03 13° NNE visible
09 Sep 9.0 23:12:12 10° NNW 23:12:32 11° NNW 23:12:32 11° NNW visible
